When you browse on this site, cookies collect data to enhance your experience and personalize the content and advertising you see.
Visit our Privacy Policy to learn more. By continuing to use the site, you agree to this use of cookies and data.
  • In Romania
  • List of Countries
  • For 7 days
  • Water Temperature
  • Weather Map
  • Weather Widgets
  • user-avatar
    Login

    Hourly Weather Puławy

    Today, 21 August, Wednesday

    Time Temperature Precipitation Wind Pressure Humidity
    00:00 +21°C° 0.2 mm 3 mps 753 mmHg 85%
    01:00 +21°C° 0 mm 4 mps 752 mmHg 91%
    02:00 +21°C° 0.3 mm 3 mps 752 mmHg 93%
    03:00 +21°C° 0.3 mm 3 mps 751 mmHg 94%
    04:00 +21°C° 0.3 mm 3 mps 751 mmHg 95%
    05:00 +21°C° 0.1 mm 3 mps 751 mmHg 92%
    06:00 +22°C° 0.1 mm 4 mps 752 mmHg 89%
    07:00 +23°C° 0.1 mm 4 mps 752 mmHg 86%
    08:00 +23°C° 0 mm 4 mps 753 mmHg 84%
    09:00 +23°C° 0 mm 5 mps 753 mmHg 83%
    10:00 +23°C° 0 mm 5 mps 754 mmHg 82%
    11:00 +21°C° 0 mm 6 mps 754 mmHg 80%
    12:00 +20°C° 0 mm 6 mps 755 mmHg 79%
    13:00 +19°C° 0 mm 6 mps 756 mmHg 77%
    14:00 +19°C° 0 mm 6 mps 756 mmHg 74%
    15:00 +20°C° 0 mm 6 mps 756 mmHg 71%
    16:00 +20°C° 0 mm 6 mps 757 mmHg 68%
    17:00 +19°C° 0 mm 5 mps 757 mmHg 71%
    18:00 +18°C° 0 mm 4 mps 757 mmHg 73%
    19:00 +17°C° 0 mm 3 mps 758 mmHg 76%
    20:00 +16°C° 0 mm 3 mps 758 mmHg 79%
    21:00 +16°C° 0 mm 3 mps 758 mmHg 81%
    22:00 +15°C° 0 mm 2 mps 759 mmHg 84%
    23:00 +14°C° 0 mm 2 mps 759 mmHg 85%

    Tomorrow, 22 August, Thursday

    Time Temperature Precipitation Wind Pressure Humidity
    00:00 +14°C° 0 mm 2 mps 759 mmHg 87%
    01:00 +13°C° 0 mm 2 mps 759 mmHg 88%
    02:00 +13°C° 0 mm 2 mps 759 mmHg 88%
    03:00 +13°C° 0 mm 2 mps 759 mmHg 88%
    04:00 +12°C° 0 mm 2 mps 759 mmHg 88%
    05:00 +14°C° 0 mm 2 mps 759 mmHg 84%
    06:00 +15°C° 0 mm 2 mps 759 mmHg 79%
    07:00 +16°C° 0 mm 2 mps 760 mmHg 75%
    08:00 +17°C° 0 mm 3 mps 760 mmHg 70%
    09:00 +19°C° 0 mm 3 mps 760 mmHg 65%
    10:00 +20°C° 0 mm 3 mps 760 mmHg 60%
    11:00 +21°C° 0 mm 3 mps 759 mmHg 58%
    12:00 +22°C° 0 mm 3 mps 759 mmHg 55%
    13:00 +24°C° 0 mm 3 mps 759 mmHg 53%
    14:00 +24°C° 0 mm 3 mps 759 mmHg 53%
    15:00 +24°C° 0 mm 3 mps 759 mmHg 54%
    16:00 +24°C° 0 mm 3 mps 758 mmHg 55%
    17:00 +21°C° 0 mm 3 mps 758 mmHg 59%
    18:00 +20°C° 0 mm 3 mps 758 mmHg 64%
    19:00 +19°C° 0 mm 3 mps 758 mmHg 68%
    20:00 +18°C° 0 mm 3 mps 758 mmHg 69%
    21:00 +18°C° 0 mm 3 mps 759 mmHg 70%
    22:00 +17°C° 0 mm 3 mps 759 mmHg 71%
    23:00 +17°C° 0 mm 2 mps 759 mmHg 74%

    Day after tomorrow, 23 August, Friday

    Time Temperature Precipitation Wind Pressure Humidity
    00:00 +16°C° 0 mm 2 mps 759 mmHg 78%
    01:00 +15°C° 0 mm 2 mps 759 mmHg 81%
    02:00 +15°C° 0 mm 2 mps 759 mmHg 84%
    03:00 +15°C° 0 mm 2 mps 758 mmHg 87%
    04:00 +14°C° 0 mm 2 mps 758 mmHg 90%
    05:00 +14°C° 0 mm 3 mps 758 mmHg 85%
    06:00 +17°C° 0 mm 3 mps 759 mmHg 81%
    07:00 +18°C° 0 mm 3 mps 759 mmHg 76%
    08:00 +20°C° 0 mm 3 mps 759 mmHg 70%
    09:00 +21°C° 0 mm 3 mps 759 mmHg 64%
    10:00 +23°C° 0 mm 4 mps 759 mmHg 58%
    11:00 +25°C° 0 mm 4 mps 759 mmHg 54%
    12:00 +25°C° 0 mm 4 mps 758 mmHg 51%
    13:00 +26°C° 0 mm 4 mps 758 mmHg 47%
    14:00 +26°C° 0 mm 4 mps 758 mmHg 48%
    15:00 +26°C° 0 mm 4 mps 758 mmHg 48%
    16:00 +26°C° 0 mm 4 mps 758 mmHg 49%
    17:00 +24°C° 0 mm 3 mps 757 mmHg 55%
    18:00 +21°C° 0 mm 3 mps 757 mmHg 61%
    19:00 +19°C° 0 mm 3 mps 757 mmHg 68%
    20:00 +18°C° 0 mm 3 mps 757 mmHg 69%
    21:00 +17°C° 0 mm 3 mps 757 mmHg 71%
    22:00 +17°C° 0 mm 3 mps 758 mmHg 73%
    23:00 +16°C° 0 mm 3 mps 757 mmHg 74%

    24 August, Saturday

    Time Temperature Precipitation Wind Pressure Humidity
    00:00 +16°C° 0 mm 3 mps 757 mmHg 75%
    01:00 +14°C° 0 mm 3 mps 757 mmHg 77%
    02:00 +14°C° 0 mm 3 mps 757 mmHg 78%
    03:00 +13°C° 0 mm 3 mps 757 mmHg 79%
    04:00 +13°C° 0 mm 3 mps 757 mmHg 81%
    05:00 +14°C° 0 mm 3 mps 757 mmHg 78%
    06:00 +16°C° 0 mm 3 mps 757 mmHg 75%
    07:00 +18°C° 0 mm 4 mps 757 mmHg 72%
    08:00 +19°C° 0 mm 4 mps 757 mmHg 66%
    09:00 +21°C° 0 mm 4 mps 757 mmHg 61%
    10:00 +23°C° 0 mm 4 mps 757 mmHg 55%
    11:00 +25°C° 0 mm 4 mps 756 mmHg 53%
    12:00 +26°C° 0 mm 4 mps 756 mmHg 51%
    13:00 +26°C° 0 mm 4 mps 756 mmHg 48%
    14:00 +26°C° 0 mm 4 mps 755 mmHg 50%
    15:00 +26°C° 0 mm 4 mps 755 mmHg 51%
    16:00 +26°C° 0 mm 4 mps 755 mmHg 53%
    17:00 +24°C° 0 mm 3 mps 755 mmHg 58%
    18:00 +21°C° 0 mm 3 mps 755 mmHg 63%
    19:00 +20°C° 0 mm 3 mps 755 mmHg 69%
    20:00 +19°C° 0 mm 3 mps 755 mmHg 69%
    21:00 +18°C° 0 mm 3 mps 755 mmHg 68%
    22:00 +18°C° 0 mm 3 mps 755 mmHg 68%
    23:00 +17°C° 0 mm 3 mps 755 mmHg 70%

    25 August, Sunday

    Time Temperature Precipitation Wind Pressure Humidity
    00:00 +17°C° 0 mm 3 mps 755 mmHg 72%
    01:00 +16°C° 0 mm 3 mps 755 mmHg 74%
    02:00 +16°C° 0 mm 3 mps 755 mmHg 76%
    03:00 +16°C° 0 mm 3 mps 754 mmHg 79%
    04:00 +14°C° 0 mm 3 mps 754 mmHg 81%
    05:00 +17°C° 0 mm 3 mps 754 mmHg 79%
    06:00 +18°C° 0 mm 3 mps 754 mmHg 78%
    07:00 +19°C° 0 mm 4 mps 754 mmHg 76%
    08:00 +21°C° 0 mm 4 mps 755 mmHg 71%
    09:00 +23°C° 0 mm 4 mps 755 mmHg 67%
    10:00 +25°C° 0 mm 4 mps 755 mmHg 63%
    11:00 +26°C° 0 mm 4 mps 755 mmHg 59%
    12:00 +27°C° 0 mm 4 mps 754 mmHg 56%
    13:00 +28°C° 0 mm 4 mps 754 mmHg 53%
    14:00 +28°C° 0 mm 4 mps 754 mmHg 54%
    15:00 +28°C° 0 mm 4 mps 754 mmHg 55%
    16:00 +27°C° 0 mm 4 mps 754 mmHg 56%
    17:00 +26°C° 0 mm 4 mps 754 mmHg 62%
    18:00 +23°C° 0 mm 4 mps 754 mmHg 68%
    19:00 +21°C° 0 mm 3 mps 754 mmHg 74%
    20:00 +20°C° 0 mm 4 mps 754 mmHg 75%
    21:00 +20°C° 0 mm 4 mps 754 mmHg 76%
    22:00 +19°C° 0 mm 4 mps 754 mmHg 78%
    23:00 +19°C° 0 mm 4 mps 754 mmHg 80%

    26 August, Monday

    Time Temperature Precipitation Wind Pressure Humidity
    00:00 +18°C° 0 mm 4 mps 754 mmHg 82%
    01:00 +18°C° 0 mm 3 mps 754 mmHg 85%
    02:00 +17°C° 0 mm 3 mps 754 mmHg 88%
    03:00 +17°C° 0 mm 3 mps 753 mmHg 91%
    04:00 +17°C° 0 mm 3 mps 753 mmHg 93%
    05:00 +18°C° 0 mm 3 mps 753 mmHg 88%
    06:00 +19°C° 0 mm 4 mps 753 mmHg 83%
    07:00 +20°C° 0 mm 4 mps 753 mmHg 77%
    08:00 +22°C° 0 mm 4 mps 753 mmHg 71%
    09:00 +25°C° 0 mm 4 mps 753 mmHg 65%
    10:00 +26°C° 0 mm 4 mps 753 mmHg 59%
    11:00 +27°C° 0 mm 4 mps 753 mmHg 57%
    12:00 +28°C° 0 mm 4 mps 752 mmHg 56%
    13:00 +29°C° 0 mm 4 mps 752 mmHg 54%
    14:00 +29°C° 0 mm 4 mps 752 mmHg 55%
    15:00 +29°C° 0 mm 3 mps 751 mmHg 56%
    16:00 +29°C° 0 mm 3 mps 751 mmHg 57%
    17:00 +27°C° 0 mm 3 mps 751 mmHg 63%
    18:00 +26°C° 0 mm 2 mps 751 mmHg 70%
    19:00 +24°C° 0 mm 2 mps 751 mmHg 77%
    20:00 +23°C° 0 mm 2 mps 751 mmHg 78%
    21:00 +23°C° 0 mm 2 mps 751 mmHg 80%
    22:00 +21°C° 0 mm 3 mps 751 mmHg 81%
    23:00 +21°C° 0 mm 2 mps 751 mmHg 82%
    Show more